CST,Max TemperatureF,Mean TemperatureF,Min TemperatureF,Max Dew PointF,MeanDew PointF,Min DewpointF,Max Humidity, Mean Humidity, Min Humidity, Max Sea Level PressureIn, Mean Sea Level PressureIn, Min Sea Level PressureIn, Max VisibilityMiles, Mean VisibilityMiles, Min VisibilityMiles, Max Wind SpeedMPH, Mean Wind SpeedMPH, Max Gust SpeedMPH,PrecipitationIn, CloudCover, Events, WindDirDegrees
2012-2-1,36,34,32,36,33,31,98,96,94,30.08,30.05,29.99,7,1,0,9,5,,0.00,8,Fog,167
2012-2-2,42,33,24,36,31,24,98,93,76,30.31,30.21,30.09,10,7,0,9,1,,0.00,2,Fog,73
2012-2-3,34,33,29,33,32,27,98,97,90,30.47,30.44,30.38,10,3,0,10,7,,0.00,8,Fog,53
2012-2-4,34,29,24,33,28,23,97,95,90,30.44,30.39,30.33,10,4,0,15,7,17,0.00,7,Fog-Snow,320
2012-2-5,32,30,29,30,29,28,95,94,92,30.35,30.33,30.27,10,5,2,14,8,,0.00,8,,281
2012-2-6,48,34,20,35,28,19,95,81,59,30.17,30.09,30.05,10,9,5,14,6,,0.00,0,,261
2012-2-7,32,26,20,25,18,10,76,69,55,30.53,30.45,30.30,10,10,10,17,11,24,0.00,5,,4
2012-2-8,34,20,6,13,8,3,85,64,32,30.49,30.39,30.26,10,10,10,10,4,,0.00,0,,266
2012-2-9,42,28,14,25,17,8,88,69,45,30.22,30.04,29.87,10,10,10,14,7,20,0.00,0,,216
2012-2-10,17,10,3,8,-2,-7,70,56,36,30.50,30.28,30.04,10,10,10,25,20,31,0.00,1,,336
2012-2-11,20,10,0,1,-5,-10,72,53,35,30.62,30.56,30.51,10,10,10,23,14,30,0.00,0,,295
2012-2-12,35,18,1,5,0,-5,74,52,25,30.48,30.34,30.12,10,10,10,12,6,16,0.00,0,,228
2012-2-13,32,26,19,27,18,7,88,68,56,30.03,29.84,29.71,10,10,10,14,6,17,0.00,8,,169
2012-2-14,36,25,14,30,23,12,95,86,70,29.72,29.69,29.65,10,6,0,14,4,18,0.00,7,Fog,144
2012-2-15,39,28,17,32,26,15,93,84,69,30.01,29.91,29.78,10,9,7,13,3,22,0.00,5,,228
2012-2-16,40,30,19,27,21,16,94,74,47,30.10,30.05,30.03,10,10,4,20,8,23,0.00,1,,266
2012-2-17,39,28,17,26,21,15,93,71,51,30.14,30.01,29.93,10,10,10,21,7,31,0.00,3,,292
2012-2-18,39,26,12,21,15,8,88,68,43,30.25,30.18,30.13,10,10,10,7,4,,0.00,0,,243
2012-2-19,45,31,17,26,20,15,93,70,38,30.13,30.06,29.99,10,10,10,15,5,23,0.00,0,,150
2012-2-20,43,35,27,33,26,23,95,73,48,30.03,29.88,29.67,10,8,1,23,11,30,0.00,5,Snow,134
2012-2-21,34,32,30,33,30,26,97,87,75,29.60,29.55,29.50,10,9,2,25,13,33,0.00,8,Snow,260
2012-2-22,35,26,16,27,21,15,94,82,66,29.56,29.47,29.40,10,9,4,7,3,,0.00,3,,271
2012-2-23,34,28,21,29,25,20,93,84,75,29.69,29.52,29.39,10,9,7,14,4,18,0.00,3,,15
2012-2-24,30,24,17,29,19,10,95,76,66,30.04,29.86,29.71,10,9,2,25,13,36,0.00,6,Snow,297
2012-2-25,29,18,6,21,11,3,85,76,64,30.22,30.14,30.04,10,10,10,15,8,18,0.00,0,,271
2012-2-26,35,30,22,30,24,19,86,79,71,30.03,29.76,29.54,10,10,7,30,18,38,0.00,7,Snow,223
2012-2-27,27,20,14,20,16,10,88,79,71,30.42,30.31,30.04,10,10,4,24,16,30,0.00,3,Snow,279
2012-2-28,34,29,24,32,28,20,93,86,73,30.30,30.09,29.82,10,7,2,17,10,23,0.00,8,Snow,130
2012-2-29,36,35,34,34,33,31,95,91,83,29.56,29.33,29.20,10,4,1,17,8,22,0.00,8,Snow-Thunderstorm,47